Theta_e
312 311 310 309 309 308 308 308 308 308 309 310 310 312 315 315 315 314 312 311 312 313 313 311 310 310 311 312 313 313 312 305 297 295 295 295 295 295 295 295 295 295 295 295 295 294 295 295 294 294 294 293 293 293 292 292 291 291 290 289 289 288 288 288 288 287 288 288 287 287 287 287 286 286 286 286 286 286 286 286 286 286 286 286 286
312 311 310 310 309 309 308 308 308 308 309 310 310 312 315 315 314 314 311 310 312 313 312 311 310 309 310 311 311 312 311 305 297 294 295 294 295 295 295 295 295 295 295 295 295 295 295 295 294 293 293 293 292 292 291 291 291 291 290 289 289 288 288 288 288 287 287 287 287 287 287 287 286 286 286 286 286 286 286 286 286 286 286 286 286
312 311 310 310 309 309 308 308 308 308 309 310 311 312 314 314 313 313 311 310 312 313 312 311 310 309 309 310 310 311 311 307 298 294 294 294 294 295 294 295 295 295 295 295 295 295 294 294 293 293 292 292 291 291 291 291 291 290 290 289 289 288 288 288 288 287 287 287 287 287 287 287 286 286 286 286 286 286 286 286 286 286 286 286 286
312 312 311 310 309 308 308 308 308 309 309 310 311 311 312 313 313 311 309 310 311 312 311 310 310 309 309 310 310 310 311 307 299 294 294 294 294 294 294 295 295 294 294 294 294 294 293 293 292 292 292 291 291 291 291 291 290 290 289 289 289 289 288 288 288 288 288 288 288 287 287 287 287 286 286 286 286 286 286 286 286 286 286 286 286
313 312 311 310 310 308 308 308 308 309 309 310 310 311 311 311 311 309 309 310 312 311 310 310 309 308 308 310 310 310 310 307 299 293 293 294 294 294 294 295 295 294 294 294 294 293 292 292 292 291 291 291 291 292 291 290 290 289 289 289 289 289 288 288 288 288 288 288 288 288 287 287 287 287 286 286 286 286 286 286 286 286 286 286 286
313 312 311 310 310 309 308 308 308 308 309 309 310 311 310 310 309 309 309 310 311 310 309 309 308 308 308 309 309 309 309 306 299 293 293 293 293 294 294 294 294 294 293 293 293 292 291 291 291 291 291 292 293 293 292 291 290 290 290 290 289 288 288 288 288 287 287 287 287 287 287 287 287 287 287 286 286 286 286 286 286 286 286 286 286
313 312 311 311 310 309 309 308 308 308 308 309 310 310 310 310 310 309 308 309 310 309 308 308 308 308 309 309 309 307 307 305 298 293 293 293 293 293 293 293 293 293 293 293 292 291 291 291 290 291 292 293 293 293 292 291 291 292 292 290 289 288 288 288 287 287 287 286 286 286 286 286 286 287 287 286 286 286 286 286 286 286 286 286 286
314 313 312 311 310 310 309 308 307 307 307 309 309 310 309 309 309 310 309 309 309 308 307 307 308 309 309 309 307 306 306 303 296 292 293 293 293 293 293 293 293 293 292 292 291 291 291 290 291 291 292 292 292 292 292 292 292 292 292 290 289 288 288 288 288 287 286 286 286 286 286 286 286 286 286 286 286 286 286 286 286 286 286 286 286
314 313 313 312 311 310 309 308 308 307 308 308 309 309 309 308 308 309 310 310 309 308 308 308 309 308 308 308 306 304 304 301 295 292 292 292 292 293 293 293 293 292 292 291 291 291 290 290 291 292 291 291 291 291 291 291 291 291 291 290 289 288 288 288 288 287 286 286 286 286 286 286 286 286 286 286 286 286 286 285 285 286 285 286 286
314 314 313 313 311 310 309 308 307 307 307 308 308 308 308 307 307 308 309 309 309 309 309 308 308 308 308 307 304 303 303 299 293 292 292 292 292 292 292 292 292 292 291 291 291 290 290 291 292 292 291 291 291 291 290 290 290 290 290 289 289 288 289 289 288 288 287 287 286 286 286 286 286 286 286 286 286 286 285 285 285 285 285 285 285
314 314 313 312 310 309 309 308 307 307 307 307 307 307 307 307 306 307 308 308 308 309 308 308 307 307 307 306 303 301 301 297 292 292 292 292 292 292 292 292 291 291 291 291 290 290 291 293 292 290 290 292 292 291 289 289 289 290 289 289 289 289 289 288 288 288 288 287 287 286 286 286 287 286 286 286 286 286 285 285 285 285 284 284 285
313 313 312 311 310 309 308 307 307 306 306 306 306 306 306 306 306 306 307 307 308 308 308 307 307 306 305 305 302 300 299 295 292 291 291 291 291 291 291 291 291 291 291 290 290 290 292 292 291 290 292 293 292 290 289 289 289 289 289 289 288 288 288 288 288 288 288 287 287 287 287 287 287 287 286 286 286 285 285 285 285 284 284 284 284
313 312 311 310 309 308 307 307 306 306 306 305 306 306 305 305 305 305 306 307 307 308 308 307 306 304 304 304 301 298 297 294 292 291 291 291 291 291 290 290 290 290 290 290 290 291 292 291 291 292 293 292 292 290 289 289 289 289 289 288 288 288 288 288 288 288 288 288 287 287 287 287 287 287 286 286 285 285 285 285 284 284 284 283 283
312 312 311 310 309 308 307 306 305 305 305 305 305 305 305 304 304 304 305 306 307 308 307 306 305 303 303 302 299 296 295 293 291 291 291 290 290 290 289 289 289 290 290 290 291 291 291 291 292 293 292 292 292 291 290 290 289 289 288 288 288 288 288 288 288 288 288 288 287 287 287 287 287 286 286 285 285 285 284 284 284 283 283 283 283
312 311 310 309 308 307 306 305 304 304 304 304 304 304 304 304 304 305 305 306 307 307 306 305 303 301 300 299 296 293 293 292 291 291 290 290 290 289 288 288 289 289 290 290 291 291 292 293 293 292 292 292 292 291 290 290 289 289 288 288 288 287 287 287 287 287 287 287 287 287 287 287 286 286 286 285 285 284 284 284 283 283 282 282 282
312 311 310 309 307 306 305 304 303 303 303 303 303 303 304 304 304 305 305 306 306 306 305 303 301 299 298 297 294 291 291 290 290 290 290 289 289 288 288 288 288 289 290 290 291 292 294 294 293 292 292 292 291 290 290 289 289 288 288 288 288 287 287 287 287 287 287 287 287 287 287 286 286 285 285 284 284 283 283 283 283 282 281 281 282
311 310 309 307 306 305 304 303 302 302 302 302 302 302 302 303 304 305 305 306 306 305 304 303 300 297 296 295 293 291 290 290 290 289 289 289 288 288 287 287 288 289 289 290 291 293 294 294 293 292 292 292 291 290 289 288 288 288 288 288 287 287 287 287 287 287 287 286 286 286 286 286 285 285 284 283 283 282 281 281 282 281 280 280 280
309 308 307 306 304 303 303 302 301 301 301 301 301 301 301 302 303 304 304 305 305 304 303 301 298 295 293 292 291 290 290 289 289 289 288 288 287 287 287 288 288 288 289 290 291 293 294 293 292 292 292 291 290 289 288 288 287 287 287 287 287 287 287 287 286 286 286 286 285 285 285 285 284 284 283 283 282 281 281 280 281 280 280 279 279
307 306 305 304 303 302 301 300 300 299 299 299 299 300 300 301 302 303 303 302 302 301 300 299 298 294 291 289 289 288 288 288 288 288 288 287 287 287 287 288 288 288 289 290 291 293 294 293 292 292 291 290 289 288 287 286 286 286 286 286 286 286 286 286 285 285 285 284 284 284 284 284 283 283 283 282 282 282 281 280 280 280 279 279 279
305 304 303 302 302 301 300 299 299 298 298 298 298 298 299 300 301 301 300 300 299 299 298 297 297 295 291 289 288 287 287 287 287 287 287 286 286 287 287 288 288 288 289 290 293 294 294 293 292 291 289 288 288 286 285 285 284 284 284 284 284 285 284 284 284 283 283 283 283 283 283 283 282 282 282 282 282 281 280 280 279 279 279 279 279
304 303 302 301 301 300 299 298 298 297 297 297 297 298 298 299 299 299 299 298 298 297 296 295 295 293 291 289 288 287 287 287 286 286 286 286 287 287 288 289 289 289 290 292 294 294 293 292 291 290 288 287 286 285 284 284 283 283 284 283 284 283 283 283 283 283 283 283 282 282 282 282 282 281 281 281 280 280 279 279 279 278 278 279 279
303 302 301 300 300 299 298 297 297 297 297 297 297 297 297 298 298 297 297 296 295 294 294 293 292 292 291 289 288 288 287 287 286 287 287 288 289 290 290 290 290 291 293 294 294 293 292 291 290 288 287 286 285 284 284 283 283 283 283 283 283 283 283 282 283 282 282 282 282 282 281 281 281 281 280 280 280 279 279 278 278 278 278 278 278
302 301 301 300 299 299 298 297 297 297 297 297 297 297 296 296 296 295 295 294 294 294 293 292 292 291 291 290 290 290 290 289 289 289 290 290 291 291 291 291 292 293 294 294 293 292 291 290 288 287 286 285 285 285 284 283 283 283 283 283 282 282 282 282 281 281 281 281 281 281 281 281 280 280 280 280 279 279 278 278 277 277 277 277 277
301 301 300 300 299 299 298 298 298 297 297 296 296 296 295 295 295 295 295 295 295 295 295 294 293 293 292 292 292 292 292 292 292 292 292 292 292 293 293 294 294 294 293 292 291 290 289 288 287 286 286 285 285 285 284 284 283 283 283 283 282 282 282 282 281 281 281 281 281 281 281 280 280 280 279 279 278 278 277 277 277 276 276 276 276
301 301 300 300 299 299 298 298 297 297 296 296 295 295 295 295 295 296 296 296 297 297 297 296 296 295 295 295 295 294 294 294 294 294 294 294 294 294 294 294 293 292 291 290 289 288 288 287 287 287 286 286 286 285 285 285 284 284 283 283 282 282 281 281 281 280 280 280 280 280 279 279 279 278 278 278 277 277 276 276 276 276 275 275 275
301 300 300 299 299 298 298 297 297 296 296 295 295 295 296 296 297 297 297 297 297 297 297 297 297 296 296 296 296 295 295 295 295 295 294 294 293 293 292 291 290 289 289 289 289 289 288 288 288 287 287 287 286 286 286 285 285 284 283 283 282 281 280 280 279 279 279 279 279 278 278 278 278 277 277 277 277 276 276 276 275 275 274 274 274
302 301 300 300 299 299 298 298 298 297 297 296 296 296 296 297 297 298 297 298 298 297 297 297 297 297 296 295 295 295 294 294 294 293 292 292 291 291 290 290 289 289 289 289 289 289 288 288 288 288 287 287 286 286 285 285 284 283 282 282 281 280 280 279 279 278 278 278 277 277 277 277 277 277 276 276 276 275 275 275 274 274 274 273 273
303 302 302 301 300 300 299 299 298 298 297 297 297 297 297 297 297 297 297 297 297 297 297 296 296 295 295 294 294 293 293 292 292 291 290 290 290 289 289 289 289 289 289 289 288 288 288 287 287 286 286 286 285 285 284 283 283 282 281 280 279 279 278 277 277 276 276 276 276 276 275 275 275 275 275 274 274 274 274 274 274 273 273 273 273
302 301 301 300 300 299 299 298 298 298 297 297 297 297 297 297 296 296 295 295 295 294 294 294 293 293 293 292 292 291 290 290 290 289 289 289 289 289 289 289 289 288 288 288 288 287 287 286 286 286 285 285 285 284 284 283 282 281 280 279 278 277 276 275 275 275 274 274 274 274 274 273 273 273 273 273 273 273 273 273 273 273 272 272 271
300 299 299 299 298 298 298 298 298 297 297 297 297 297 296 295 295 294 294 294 294 293 292 292 291 291 290 290 290 289 289 289 289 289 289 289 289 289 289 289 288 288 288 287 287 287 286 286 286 286 285 285 285 284 283 282 281 280 278 277 276 275 275 274 274 273 273 273 273 272 272 272 272 272 271 271 271 271 271 271 271 271 271 270 270
298 297 297 297 297 297 297 297 297 297 297 297 297 296 295 294 294 293 292 292 291 291 290 290 289 289 289 289 289 289 289 289 289 289 289 289 289 289 288 288 288 287 287 287 287 286 286 286 285 285 285 284 283 283 282 280 279 278 277 276 275 274 274 273 273 273 272 272 272 271 271 271 271 270 270 270 270 270 269 269 269 270 270 269 269
297 297 297 297 297 297 297 297 297 296 296 295 295 294 294 292 291 291 290 290 289 289 289 289 289 289 289 289 289 289 289 289 289 289 289 288 288 288 288 287 287 287 287 286 286 286 285 285 284 284 283 282 282 281 279 278 277 276 276 275 274 274 273 273 273 272 272 272 271 271 271 270 270 270 269 269 269 269 268 268 268 268 268 268 269
296 296 296 296 296 296 296 295 295 294 293 293 292 291 291 290 290 290 290 289 289 289 289 289 289 289 289 289 289 289 289 289 289 288 288 288 288 287 287 287 287 286 286 285 285 284 284 283 283 282 281 280 279 278 277 276 276 275 275 274 274 274 273 273 272 272 272 271 271 271 270 270 270 270 269 269 269 268 268 267 266 267 267 267 268
295 295 294 294 294 293 293 292 292 291 291 290 290 290 290 289 290 290 290 290 290 290 289 289 289 289 289 289 289 289 289 289 288 288 287 287 287 287 286 286 286 285 285 284 284 283 282 281 281 280 279 278 277 276 276 275 275 274 274 274 273 273 273 272 272 272 272 271 271 270 270 270 270 269 269 268 268 268 267 266 266 266 266 266 267
293 292 292 292 291 291 290 290 290 290 290 290 289 289 289 289 290 290 290 290 290 290 290 290 289 289 289 289 289 289 288 288 287 287 287 286 286 286 285 285 285 284 283 283 282 281 280 279 279 278 277 276 276 275 275 274 274 274 273 273 273 273 272 272 272 272 271 271 270 270 270 269 269 269 268 268 267 267 266 266 266 266 266 266 266
291 291 290 290 290 290 290 290 289 289 290 289 289 289 290 290 289 289 289 289 290 290 290 289 289 289 289 288 288 288 287 287 286 286 286 286 285 285 284 284 283 283 282 281 280 279 278 278 277 276 276 275 275 275 274 274 274 273 273 273 272 272 272 272 272 271 271 270 270 269 269 269 268 268 267 267 266 266 266 265 265 265 266 266 266
290 290 290 290 290 290 290 290 290 289 289 290 289 290 289 289 289 289 289 290 290 289 289 289 289 288 288 288 287 287 287 286 286 285 285 285 284 284 283 282 282 281 280 279 278 278 277 276 276 275 275 275 274 274 274 273 273 273 272 272 272 272 272 271 271 271 270 270 269 269 268 268 268 267 267 266 266 266 265 265 265 265 265 266 266
290 290 290 290 290 290 290 290 290 289 289 289 289 289 289 289 289 289 289 289 289 289 289 288 288 288 287 287 287 286 286 285 285 285 284 284 283 282 282 281 281 280 279 278 277 276 276 276 275 275 275 274 274 274 273 273 272 272 272 272 271 271 271 271 270 270 270 269 269 268 268 268 268 267 267 266 266 266 265 265 265 265 265 265 266
290 290 290 290 290 290 290 290 289 289 289 289 289 289 289 289 289 289 289 289 289 288 288 288 287 287 286 286 286 285 285 285 285 284 283 283 282 281 281 280 279 278 277 277 276 276 275 275 275 275 274 274 273 273 272 272 272 272 272 271 271 271 271 270 270 270 269 269 268 268 268 268 267 267 267 266 266 266 265 265 265 265 265 265 265
290 290 290 290 290 289 289 289 289 289 289 289 289 289 289 289 289 289 289 288 288 287 287 287 286 286 286 285 285 285 284 284 284 283 282 282 281 281 280 279 278 277 276 276 275 275 275 275 274 274 274 273 273 272 272 272 271 271 271 271 271 271 270 270 270 269 269 269 268 268 268 267 267 267 266 266 266 265 265 265 265 265 265 265 265
290 290 290 289 289 289 289 289 289 289 289 289 289 289 289 289 289 288 288 287 287 286 286 286 285 285 285 284 284 284 283 283 282 282 281 281 280 279 278 277 277 276 276 275 275 275 274 274 274 274 273 273 272 272 272 271 271 271 271 271 270 270 270 270 269 269 269 269 268 268 268 267 267 267 266 266 266 265 265 265 265 265 265 265 265
289 290 289 289 289 289 289 289 289 289 289 289 289 289 289 288 288 287 287 286 286 286 285 285 285 284 284 284 283 283 282 282 282 281 280 280 279 278 277 276 276 275 275 275 274 274 274 274 273 273 272 272 272 271 271 271 271 271 271 270 270 270 270 269 269 269 269 269 268 268 268 267 267 267 266 266 266 266 265 265 265 265 265 265 265
289 289 289 289 290 289 289 289 289 289 289 289 288 288 288 287 287 286 286 285 285 285 284 284 284 284 283 283 282 282 281 281 281 280 279 278 278 277 276 276 275 275 274 274 274 274 273 273 273 272 272 271 271 271 271 271 271 271 270 270 270 270 269 269 269 269 269 269 268 268 268 267 267 267 266 266 266 266 266 265 265 265 265 265 265
289 289 289 289 289 289 289 289 289 289 288 288 288 287 286 286 286 285 285 285 284 284 284 283 283 283 282 282 281 281 281 280 280 279 278 277 277 276 276 275 275 274 274 274 273 273 273 273 272 272 271 271 271 271 271 271 271 270 270 270 270 270 269 269 269 269 269 269 268 268 268 267 267 267 266 266 266 266 266 266 265 265 265 265 265
289 289 289 289 289 289 289 289 288 288 287 287 286 286 285 285 285 284 284 284 283 283 283 283 282 282 281 281 281 280 280 279 278 277 277 276 276 275 275 274 274 274 273 273 273 273 273 272 272 271 271 271 271 271 271 270 270 270 270 270 270 270 269 269 269 269 268 268 268 268 268 268 267 267 267 266 266 266 266 266 265 265 265 265 265
289 289 289 289 289 288 288 288 287 287 286 286 285 285 284 284 284 283 283 283 282 282 282 282 281 281 281 280 280 279 278 277 277 276 276 275 275 274 274 274 273 273 273 273 273 273 272 272 271 271 271 270 270 270 270 270 270 270 270 270 270 270 269 269 269 269 269 268 268 268 268 268 267 267 267 267 266 266 266 266 266 265 265 265 265
289 288 288 288 288 287 287 286 286 286 285 285 284 284 284 283 283 282 282 282 281 281 281 281 281 280 280 279 278 277 277 276 275 275 275 274 274 273 273 273 273 273 273 273 273 272 272 271 271 271 270 270 270 270 270 270 270 270 270 270 270 270 269 269 269 269 269 269 268 268 268 268 267 267 267 267 266 266 266 266 266 265 265 265 265
288 288 287 287 287 286 286 285 285 285 284 284 284 283 283 282 282 282 281 281 281 280 280 280 280 279 278 277 277 276 276 275 275 274 274 273 273 273 273 272 272 272 272 272 272 272 271 271 271 270 270 270 270 270 270 270 270 270 270 270 269 269 269 269 269 269 269 269 269 268 268 268 268 267 267 266 266 266 266 266 265 265 265 265 264
287 286 286 286 285 285 285 284 284 284 283 283 283 283 282 282 281 281 280 280 280 279 279 279 278 277 277 276 276 275 275 274 274 273 273 273 272 272 272 272 272 272 272 272 271 271 271 271 270 270 270 270 270 270 270 270 270 270 269 269 269 269 269 269 269 269 269 269 269 268 268 268 268 268 267 267 266 266 266 266 265 265 265 265 264
285 285 285 284 284 284 284 283 283 283 283 282 282 282 281 280 280 279 279 279 278 278 278 277 277 276 276 275 275 274 274 274 273 273 272 272 272 272 271 271 271 271 271 271 271 271 270 270 270 270 270 270 270 270 270 270 270 270 269 269 269 269 269 269 269 269 268 268 268 268 268 268 268 268 267 267 267 267 266 266 266 266 266 265 265
284 284 283 283 283 283 282 282 282 282 281 281 280 280 279 278 278 278 278 277 277 276 276 276 276 275 275 274 274 274 273 273 273 272 272 272 271 271 271 271 271 271 271 270 270 270 270 270 269 269 269 269 270 270 270 270 270 269 269 269 269 268 268 269 269 268 268 268 268 268 268 268 268 267 267 267 267 267 266 266 266 266 266 266 265
Wind_Speed
24 24 25 27 29 31 32 32 31 30 30 30 30 31 33 34 31 26 26 28 30 32 32 30 30 32 35 36 35 32 34 38 38 37 37 37 37 37 36 36 35 34 33 31 29 28 26 23 20 17 14 12 11 11 10 11 11 12 12 13 14 14 14 15 16 17 18 17 17 18 19 19 20 21 22 23 24 26 26 27 28 29 29 30 30
22 23 24 25 27 28 30 30 31 31 31 30 30 31 32 33 31 28 27 28 30 33 30 27 28 30 33 36 36 33 34 38 39 38 38 37 36 37 36 36 36 34 32 30 29 28 26 23 19 16 13 12 11 11 11 11 12 13 13 14 15 15 15 15 16 17 18 19 18 19 20 20 20 22 22 23 24 26 27 28 28 29 29 30 31
21 22 24 25 25 26 28 29 31 32 32 31 31 31 32 32 31 30 29 29 31 32 29 28 29 30 32 35 37 35 35 39 40 39 38 37 36 37 37 35 34 33 32 31 29 27 24 21 18 15 12 11 11 11 11 12 13 14 14 15 15 16 16 16 16 17 18 20 19 19 20 21 22 22 23 24 25 26 28 29 29 30 30 30 31
21 22 23 24 24 25 27 29 31 33 33 32 32 31 32 32 31 30 30 31 32 33 31 29 29 30 33 36 37 37 37 40 41 39 37 37 36 36 36 35 34 32 32 30 28 25 22 18 16 13 12 12 12 12 13 13 13 15 16 16 17 17 17 16 17 18 19 20 20 21 22 23 23 24 24 25 25 27 28 29 30 31 31 31 31
21 22 23 24 24 26 27 29 31 34 34 32 32 31 31 31 30 30 31 33 35 34 32 30 31 33 36 37 37 37 38 40 42 40 38 37 36 36 36 35 34 32 31 28 25 22 19 16 14 13 13 13 13 14 13 13 14 15 17 18 19 19 18 18 18 19 20 22 22 23 24 25 25 25 25 26 27 27 29 30 31 32 32 32 32
21 22 23 24 25 26 28 30 31 34 34 33 32 31 30 30 29 30 32 33 34 33 32 32 34 35 36 36 36 36 38 41 43 41 39 38 37 36 36 35 34 32 29 27 24 21 18 16 15 14 15 16 16 15 14 14 15 17 19 20 20 20 20 20 20 20 22 23 24 25 27 27 27 27 27 27 28 29 30 31 32 33 34 34 34
21 22 24 25 25 26 28 29 31 33 34 33 32 32 31 31 30 30 31 32 33 33 33 34 35 35 35 34 35 36 39 42 44 42 40 38 38 37 36 34 33 31 28 26 23 20 18 16 16 16 17 18 17 16 15 16 17 18 19 20 21 22 21 21 22 23 23 24 25 27 28 28 28 29 29 29 30 31 31 32 33 34 35 36 37
21 22 24 25 26 26 27 28 30 32 32 32 32 33 32 32 33 32 32 33 33 31 29 30 31 32 33 33 35 37 40 43 44 42 40 39 38 37 36 34 33 30 27 24 22 20 18 17 17 18 18 19 18 18 18 18 19 20 20 20 21 22 23 24 25 26 25 26 27 28 29 29 29 30 30 30 31 31 32 33 35 35 36 37 39
21 23 24 25 25 26 26 27 29 31 32 32 33 34 34 33 34 34 34 35 34 31 29 29 28 30 32 33 35 37 41 43 43 42 40 38 37 36 35 34 32 29 26 24 22 20 19 18 18 19 19 19 20 21 21 21 21 22 22 21 22 24 25 26 27 28 27 28 30 30 30 31 31 31 32 32 32 33 33 34 36 36 37 39 41
22 23 23 24 25 25 26 26 28 30 32 34 34 35 35 34 34 35 34 33 33 32 32 31 29 29 31 34 36 39 41 43 42 41 39 37 36 36 35 33 30 28 26 24 22 21 19 19 20 20 21 22 23 22 23 23 24 25 24 24 25 26 27 28 28 29 29 31 32 32 32 33 33 32 33 34 34 34 34 35 36 37 38 41 42
24 24 23 24 25 26 26 27 28 30 32 33 34 35 34 33 33 34 35 33 32 32 32 31 29 29 31 33 36 39 42 43 43 41 39 37 36 35 33 31 30 28 25 23 21 20 21 22 22 23 24 25 24 22 24 26 27 27 26 26 28 30 31 31 30 30 31 34 35 34 34 36 36 35 35 36 36 36 36 37 38 39 40 41 43
25 25 24 25 26 26 27 27 28 29 31 32 33 34 34 33 33 34 35 34 32 31 31 30 29 28 31 33 35 38 42 43 43 41 39 37 35 33 32 31 29 26 24 22 22 23 24 24 24 26 27 26 24 23 25 28 30 29 29 30 32 34 35 35 33 33 33 36 38 37 38 39 39 39 38 37 38 38 39 40 41 42 42 42 44
26 26 25 26 27 27 28 27 27 28 29 30 32 33 34 33 32 33 33 33 32 30 30 29 28 28 30 33 35 38 41 43 42 40 38 36 35 33 32 29 26 24 23 23 24 25 25 26 27 28 28 26 26 26 27 29 30 31 32 33 35 36 37 38 37 36 36 38 40 41 42 41 42 42 40 40 41 42 42 43 44 44 45 45 47
27 27 26 27 27 28 27 27 27 28 28 30 32 33 33 31 29 30 32 32 31 29 28 27 26 27 30 33 35 37 40 41 41 40 38 36 34 32 30 28 25 24 24 25 26 27 27 29 30 30 28 29 29 27 27 29 30 32 35 36 38 39 40 41 41 40 40 41 43 45 45 44 44 45 44 43 45 45 45 45 46 46 47 47 48
27 26 26 26 26 27 27 26 27 27 28 30 31 32 32 30 27 27 29 30 29 28 26 25 25 26 29 32 34 37 39 40 40 39 37 35 33 31 30 28 25 23 25 27 29 29 30 32 32 30 30 31 30 27 27 29 31 34 37 39 41 42 43 44 44 44 44 45 46 48 48 47 47 47 46 46 47 48 48 48 48 48 48 49 49
26 25 25 25 25 25 25 25 26 27 27 29 30 30 31 31 28 25 26 27 27 26 25 23 23 24 27 30 34 36 38 38 38 37 36 34 33 32 30 26 24 25 28 30 30 31 33 35 33 31 32 32 30 27 27 29 32 36 39 41 43 44 45 46 47 47 48 48 49 50 50 50 50 49 49 48 48 47 47 48 49 47 46 48 49
25 24 24 23 22 22 22 23 24 25 26 27 28 28 29 29 29 26 25 26 25 24 23 22 22 22 25 29 32 34 36 37 37 36 35 34 33 31 28 25 25 28 31 30 30 33 36 35 32 31 33 32 28 26 27 31 35 38 41 43 45 46 48 48 48 49 49 50 51 51 51 52 51 50 49 48 44 40 38 43 47 45 43 45 48
23 22 21 20 20 20 20 20 21 22 23 23 24 25 25 26 27 27 26 25 24 23 22 21 20 21 22 25 28 31 34 36 36 36 34 33 31 28 26 27 29 31 31 31 33 37 38 34 30 30 31 29 27 27 30 34 37 40 43 45 47 48 49 49 49 50 50 50 51 51 51 50 49 48 47 46 43 38 35 38 42 41 42 46 48
19 18 18 18 17 17 17 17 17 18 18 19 20 21 22 23 24 25 24 23 21 20 19 18 18 19 20 23 26 29 31 33 33 33 32 31 29 28 28 30 32 33 33 34 38 40 37 32 29 29 29 28 29 30 32 36 39 41 43 44 46 49 48 46 47 48 47 48 49 48 49 49 47 46 46 45 43 39 36 35 36 37 41 44 45
16 16 16 16 16 15 14 13 14 14 14 15 16 17 19 20 21 21 20 18 16 15 15 16 16 17 19 21 24 25 27 28 29 29 30 30 29 30 31 33 34 35 36 38 40 38 34 31 29 29 29 30 31 32 34 36 38 40 41 42 45 47 45 44 45 45 45 46 47 47 47 47 45 44 43 43 41 38 35 33 31 32 36 39 39
15 15 15 15 14 14 13 13 12 12 12 13 14 15 16 17 17 17 15 14 13 13 14 15 15 15 17 18 20 21 22 24 26 27 29 30 31 32 34 36 37 37 38 38 37 35 32 31 31 30 31 32 32 33 34 35 36 38 40 42 43 43 41 41 42 42 41 42 42 42 42 43 43 43 42 42 41 39 36 34 32 30 32 34 36
14 14 14 14 14 15 15 15 15 14 14 14 14 15 15 15 15 14 13 13 13 13 13 13 13 14 15 16 17 19 21 23 26 28 29 31 33 34 35 36 36 37 37 35 33 32 32 32 31 32 32 32 33 34 35 35 36 38 39 39 37 35 33 34 36 36 36 37 37 39 41 41 42 42 42 42 42 41 39 37 33 30 29 30 32
14 14 15 15 16 17 17 18 18 17 16 15 15 15 15 15 15 15 14 14 14 14 14 14 15 15 16 16 17 19 21 23 25 27 29 30 31 32 33 34 35 34 33 31 31 31 31 32 32 32 32 33 34 35 35 35 34 34 34 32 30 29 28 29 30 31 32 32 34 37 39 39 39 40 41 41 41 40 39 37 33 30 28 28 28
16 17 18 18 19 19 19 19 19 19 18 17 17 17 17 17 17 17 16 16 16 16 16 16 17 16 17 17 17 17 18 20 21 23 25 26 28 29 30 31 30 29 28 28 29 30 30 31 31 32 32 33 34 35 34 33 32 31 31 30 29 29 29 29 31 32 33 34 36 38 39 39 39 39 39 39 37 36 36 35 33 31 29 28 28
19 20 20 21 21 21 21 21 21 21 20 19 19 19 19 19 19 19 19 18 17 17 17 16 16 15 15 15 15 16 17 18 19 20 22 23 24 25 25 24 24 24 25 26 27 27 28 29 30 31 32 33 34 34 34 34 33 33 32 32 31 31 31 31 32 32 33 34 35 35 35 34 33 32 33 34 34 34 34 34 33 32 31 31 31
21 21 22 22 23 23 23 23 23 22 22 21 20 20 20 20 20 20 20 19 18 16 15 15 15 15 14 15 15 16 17 17 18 19 19 19 19 19 19 19 19 20 22 23 24 25 26 28 30 31 32 33 34 34 34 34 34 33 32 31 30 28 27 27 26 26 27 27 28 28 28 28 28 30 32 35 36 35 34 32 32 32 32 31 31
21 22 22 23 24 24 25 25 25 24 23 22 22 20 19 19 19 18 18 17 16 15 14 14 13 14 14 14 14 15 15 15 15 15 14 14 14 14 15 16 17 18 20 21 23 25 27 28 30 31 32 32 32 32 32 32 32 31 29 28 27 25 24 23 22 22 24 25 26 27 28 29 30 32 34 35 35 35 34 33 33 33 33 32 31
21 22 23 24 25 25 25 25 25 25 24 23 22 21 19 18 17 15 14 13 12 12 12 12 12 12 12 12 13 12 12 12 12 11 11 11 12 13 14 15 16 18 20 21 23 25 26 27 28 28 29 29 29 29 29 28 27 26 26 24 23 22 21 21 21 21 22 22 24 26 27 28 30 32 33 34 34 34 33 34 34 35 34 33 32
23 24 25 25 25 25 25 24 24 23 23 22 21 19 18 16 15 14 13 13 12 12 11 11 11 11 11 11 11 10 10 10 10 10 11 12 12 13 14 16 17 18 19 20 21 22 23 24 24 25 25 25 25 26 25 25 24 24 24 23 22 21 21 21 21 22 23 24 25 27 28 29 30 32 34 36 36 35 35 35 36 36 35 34 33
24 24 24 24 24 24 24 23 22 21 20 20 19 18 18 17 16 15 15 15 14 14 13 13 13 12 12 11 11 10 10 10 11 11 12 13 13 14 15 16 16 17 17 18 19 20 21 22 22 23 23 24 25 25 25 24 24 24 24 23 23 23 24 23 24 25 26 27 28 29 30 31 32 32 32 34 36 36 36 36 36 36 35 34 33
23 23 23 22 22 22 21 21 20 19 18 18 17 17 18 18 18 17 16 16 15 15 15 14 13 12 12 11 11 11 12 12 12 12 12 12 12 13 13 14 15 15 16 16 18 20 21 21 22 23 24 24 25 25 25 24 24 24 24 24 24 24 25 25 25 26 27 28 28 29 28 28 29 29 29 30 32 33 33 34 35 35 33 32 31
21 21 21 20 20 19 19 19 19 19 18 17 17 17 18 19 19 19 19 17 16 15 14 13 12 12 12 12 12 12 12 12 11 11 10 10 11 13 14 15 16 16 16 17 18 20 21 21 22 23 23 23 24 24 24 24 24 24 23 24 24 25 26 26 26 26 26 26 26 26 25 25 25 26 26 27 29 30 30 30 31 32 31 29 27
18 19 20 20 20 19 19 19 19 19 19 19 18 18 18 18 18 19 18 17 16 15 14 13 13 13 12 12 12 11 11 10 10 10 10 11 12 13 15 16 16 16 16 17 18 19 20 20 21 22 22 22 23 23 23 23 23 22 22 23 24 25 26 26 26 25 25 25 25 24 23 23 23 24 24 25 26 27 28 27 27 28 29 28 25
18 18 19 20 20 20 20 19 19 19 19 19 19 19 18 17 15 15 15 15 15 15 15 14 14 13 12 11 11 10 10 10 10 10 10 11 12 13 15 16 15 16 16 17 18 18 19 20 21 21 21 22 22 22 22 22 22 22 22 22 23 24 24 24 24 24 24 24 23 22 21 21 22 22 22 23 23 24 25 25 25 25 25 25 23
19 18 19 19 19 19 20 19 19 19 19 19 18 17 17 15 14 13 13 13 13 13 13 13 12 12 11 11 10 11 11 10 10 10 11 12 12 13 15 16 16 16 16 17 17 18 19 20 20 21 21 21 21 21 21 21 21 22 22 22 22 22 23 23 23 23 22 22 21 21 20 20 20 20 21 21 22 23 23 23 22 22 23 22 20
19 19 19 19 19 19 19 19 19 18 18 17 17 16 16 15 14 13 12 12 12 12 11 11 10 10 10 10 11 12 11 10 10 10 11 13 13 14 15 16 16 17 17 18 18 18 19 19 19 19 19 19 20 20 20 21 21 21 21 21 21 21 21 22 21 21 20 20 19 19 18 18 18 19 19 20 20 21 21 21 20 20 20 20 18
19 19 19 19 19 18 18 18 18 18 17 17 17 16 15 14 13 13 13 12 12 11 11 11 10 10 11 11 12 12 10 10 10 11 12 13 14 14 15 15 16 17 18 18 18 18 18 18 18 18 19 19 19 20 20 20 20 20 20 20 20 20 20 20 20 20 19 18 18 17 17 17 17 17 18 19 19 19 19 19 19 18 18 18 17
19 18 17 18 18 18 18 18 18 18 18 17 16 15 14 14 14 14 13 12 12 12 12 12 11 11 12 12 12 11 10 11 12 13 13 14 14 15 15 16 17 18 18 18 18 17 17 18 18 18 19 19 19 19 19 19 19 19 19 19 19 19 19 19 19 18 18 17 17 16 16 16 16 17 17 17 17 18 18 18 18 17 16 16 16
18 18 17 17 18 18 18 18 18 18 18 17 16 16 15 15 15 14 14 13 13 13 13 12 12 12 12 12 12 11 12 12 13 14 14 15 15 16 17 17 18 18 18 18 17 17 17 17 18 18 19 19 19 19 19 18 18 18 18 18 18 18 18 18 18 17 16 16 16 16 16 16 16 16 16 16 15 16 16 16 16 15 15 15 15
19 18 18 18 18 18 18 18 17 17 16 16 16 16 16 15 14 14 14 14 14 14 13 13 13 13 12 12 12 12 13 14 14 15 16 16 17 18 18 18 18 18 18 17 17 17 17 17 18 19 19 19 19 19 18 18 18 17 17 17 17 17 17 18 17 17 16 15 15 15 15 15 15 15 14 14 14 13 13 14 14 13 13 13 14
18 18 18 18 18 18 18 18 17 17 17 16 16 16 15 15 15 15 15 15 14 14 14 14 13 13 13 13 13 13 14 15 16 16 17 18 18 19 19 19 18 18 17 17 17 17 17 17 18 19 19 19 19 18 18 17 17 17 17 17 16 16 17 17 17 17 16 15 15 15 15 15 14 14 14 13 12 12 11 11 11 11 11 12 13
18 17 17 17 17 18 17 17 17 17 17 17 16 16 16 16 16 16 15 15 15 15 15 14 14 14 13 13 13 14 16 16 17 18 18 19 19 19 19 19 18 18 17 17 17 17 17 17 18 18 19 18 18 18 17 17 17 16 16 16 16 16 16 16 17 17 16 15 15 15 15 15 14 14 14 14 13 12 11 11 11 12 12 13 14
18 17 17 17 17 17 17 17 17 17 17 17 17 17 17 17 17 16 16 15 15 15 15 15 14 14 14 14 14 15 17 17 18 19 19 20 20 20 19 19 18 18 17 17 17 17 17 17 18 18 18 18 18 17 17 17 17 16 17 16 16 16 16 16 16 16 16 16 15 15 15 15 14 14 14 14 14 14 13 12 12 13 14 14 15
18 18 18 18 18 18 18 18 18 17 17 17 17 17 17 17 16 16 16 16 16 16 16 15 15 15 15 15 16 17 18 19 20 20 20 21 21 20 20 19 18 18 18 18 18 18 17 18 18 18 18 18 18 17 17 17 17 17 17 17 16 16 16 16 16 16 16 16 16 16 16 15 15 14 14 15 16 16 15 14 14 14 15 15 16
18 18 18 18 18 18 18 18 18 18 17 17 17 17 17 16 16 16 16 16 16 16 15 16 16 16 17 17 18 19 19 20 20 21 21 21 21 20 20 19 18 18 18 19 18 18 18 18 18 17 17 18 18 18 17 17 17 18 18 18 17 17 16 17 17 16 16 16 16 16 16 16 16 15 15 15 16 17 16 16 16 16 16 17 17
18 18 18 18 18 17 17 17 17 18 18 18 17 17 16 16 16 16 16 16 16 16 16 16 17 17 18 19 20 20 21 21 21 20 20 20 20 20 20 19 19 19 19 19 19 19 19 18 18 18 18 18 19 18 18 18 18 18 18 19 19 18 17 17 17 16 16 17 16 16 16 16 16 16 15 15 16 16 17 17 17 17 17 17 17
18 18 18 18 17 17 17 18 18 18 18 18 17 16 15 15 15 16 16 16 16 16 17 18 18 19 20 21 21 22 22 21 21 20 20 20 20 20 20 20 19 19 20 20 20 20 20 19 19 19 19 19 19 19 19 19 19 19 19 20 20 19 19 19 18 17 17 17 17 17 17 17 16 16 16 15 16 16 16 17 17 16 17 17 17
17 17 17 17 17 17 17 17 18 18 18 17 16 15 15 16 16 16 16 16 17 17 18 19 19 20 21 22 22 22 22 21 21 20 20 20 20 20 20 20 20 20 20 20 20 21 21 21 21 20 20 20 20 20 20 20 20 20 20 20 20 20 20 20 19 18 18 18 17 17 17 17 17 16 16 15 15 15 16 16 16 16 16 16 16
16 16 17 17 17 17 17 17 17 17 17 17 16 16 17 17 17 17 17 17 18 18 19 20 21 21 22 22 22 22 22 21 21 20 20 20 21 21 21 21 21 21 21 21 21 21 22 22 22 22 22 22 21 21 21 21 21 20 20 20 20 20 20 20 19 18 18 18 18 17 17 17 17 17 16 16 15 15 15 15 16 16 16 16 15
16 16 16 16 16 16 16 16 17 17 17 17 17 17 17 17 17 17 18 18 19 20 20 21 22 22 23 23 23 23 22 22 21 21 21 21 21 22 22 23 22 22 22 22 22 22 23 23 23 23 23 23 23 23 22 22 21 21 20 20 20 20 19 19 19 18 18 18 17 17 17 17 17 17 17 16 16 15 15 15 16 16 16 16 15
16 15 15 15 15 15 15 16 16 16 17 17 17 17 17 17 17 18 19 19 20 21 22 22 23 23 23 23 23 23 23 22 22 22 22 22 22 23 23 23 23 23 24 23 23 23 23 23 24 24 24 24 24 24 23 23 22 21 21 20 20 19 19 19 18 18 18 18 17 17 16 16 16 16 16 16 16 16 15 15 16 16 16 16 16
Wind_Direction
261 256 251 248 245 243 242 240 238 234 230 229 227 226 228 228 226 229 237 237 230 222 219 220 223 225 225 227 230 228 222 214 209 209 210 210 210 208 206 205 205 205 205 206 207 209 214 217 221 225 230 237 247 256 263 270 275 277 277 276 274 272 270 269 270 275 280 284 286 287 290 292 295 297 297 296 296 296 296 296 297 298 300 301 301
266 262 256 252 248 244 242 240 235 232 230 230 228 227 229 228 229 236 239 235 227 219 218 225 231 231 230 231 233 233 226 217 211 211 211 211 210 209 207 207 206 206 207 209 210 213 216 219 223 227 232 242 252 258 266 273 277 279 278 277 276 274 273 273 274 277 280 283 285 287 290 293 294 294 294 294 294 295 295 295 296 297 298 299 300
268 265 261 257 252 247 244 239 235 232 229 228 227 226 227 227 232 237 236 233 227 222 225 235 239 237 235 232 231 232 229 220 213 213 213 212 211 210 209 208 208 209 210 212 214 217 220 222 225 229 238 247 252 259 268 274 277 279 278 277 277 276 275 275 276 278 281 284 287 290 291 292 292 292 293 293 293 293 294 295 296 297 298 298 299
267 265 263 260 254 248 244 239 236 232 228 228 228 227 227 230 234 236 234 231 227 225 230 237 242 243 238 234 231 230 229 222 215 214 215 214 214 213 211 210 211 212 213 215 217 220 223 225 228 234 240 245 252 260 266 271 275 277 277 278 278 276 275 275 276 279 282 285 289 291 290 291 291 292 293 294 293 293 294 295 296 297 297 298 300
267 264 262 260 256 249 244 239 235 232 229 228 228 228 228 232 235 234 232 230 226 226 232 241 247 245 237 233 231 229 228 223 216 214 215 215 216 215 214 213 212 213 215 217 220 222 224 226 230 235 239 245 253 260 264 268 271 274 277 279 278 276 275 276 277 280 282 286 289 290 291 292 292 293 294 294 294 294 294 295 296 296 297 298 300
267 264 261 259 256 251 245 240 236 232 229 227 227 227 229 232 234 233 232 231 227 229 241 249 248 243 235 232 230 228 227 222 216 215 216 216 216 216 216 215 214 215 216 217 220 221 222 226 230 234 242 252 260 264 265 266 269 273 276 276 277 276 276 278 281 282 283 286 289 291 292 294 294 295 295 295 295 295 296 297 297 297 298 300 301
267 265 262 258 256 253 248 243 239 234 230 227 227 228 230 232 234 233 232 232 233 239 249 249 244 239 234 230 228 226 224 219 215 215 216 217 217 216 216 216 216 217 217 218 219 220 222 227 232 240 252 262 269 271 269 269 274 279 279 276 275 276 278 281 283 284 285 288 290 292 293 295 296 298 298 298 297 297 298 298 297 297 300 301 301
264 263 261 258 255 254 252 247 241 237 232 229 228 230 232 232 232 233 232 232 235 243 247 244 240 238 233 229 227 225 221 218 216 215 217 218 219 218 217 217 217 217 218 218 219 222 226 230 237 249 260 268 273 273 272 276 281 285 284 279 274 275 280 283 284 285 286 288 290 292 294 295 297 300 301 301 300 301 301 301 299 299 300 300 299
262 262 262 261 257 254 253 250 243 238 233 229 228 231 234 234 232 232 234 233 234 240 244 244 242 239 233 229 226 222 219 218 216 217 218 219 220 220 221 220 220 220 219 220 222 225 227 233 246 256 260 266 270 271 274 280 285 288 288 281 274 274 280 284 284 284 285 287 289 291 292 294 297 300 301 302 303 304 303 302 300 300 300 298 298
259 261 262 262 259 254 252 250 245 239 233 229 229 231 234 236 233 232 235 236 235 238 243 245 244 239 232 228 225 221 217 217 217 219 221 222 222 223 223 223 223 223 222 224 227 226 229 243 254 256 256 263 268 270 275 280 284 289 289 281 274 274 279 283 284 284 285 286 287 288 289 292 296 299 300 302 303 303 303 302 301 300 300 299 299
255 257 258 259 257 253 251 248 245 241 236 232 231 232 234 237 235 233 234 236 236 238 242 245 243 239 233 228 225 221 217 216 217 219 221 223 224 226 226 226 225 224 225 228 227 228 241 253 255 252 256 266 271 271 273 276 280 286 286 280 277 276 277 280 282 285 286 285 285 287 287 290 295 297 298 300 301 302 302 301 299 299 299 299 299
251 251 253 253 253 251 249 247 245 244 239 234 233 234 235 237 237 233 232 234 236 239 244 244 242 239 234 228 224 221 218 217 217 219 221 223 225 226 228 228 226 226 228 228 229 239 252 255 252 253 262 272 274 270 269 272 277 283 283 281 279 277 276 277 280 284 287 285 284 285 286 289 293 295 296 297 299 299 299 299 299 299 298 297 297
249 248 249 250 250 248 247 245 244 243 241 237 234 233 235 238 238 234 231 234 238 242 244 243 241 239 233 226 221 220 219 217 218 221 223 224 225 226 227 227 227 229 231 232 239 249 254 253 254 260 269 275 274 269 268 271 276 280 282 281 280 279 278 277 279 282 285 285 284 284 287 290 291 293 295 296 296 296 296 297 297 297 297 296 296
249 247 247 247 247 246 245 244 243 242 240 238 234 233 235 239 240 235 233 236 240 242 243 242 240 238 233 226 221 219 219 219 220 222 223 225 226 227 227 227 228 232 237 242 248 252 253 257 262 267 273 276 273 270 270 273 277 280 281 281 280 280 280 279 279 281 283 284 284 286 288 289 289 291 293 293 293 293 294 294 294 294 293 292 293
250 248 246 245 244 243 243 242 241 241 239 237 235 233 233 236 238 236 234 236 240 242 243 241 240 238 233 226 222 219 219 220 221 223 225 227 227 228 228 228 230 237 244 248 250 253 259 266 268 269 274 277 274 272 274 277 279 280 280 280 280 280 280 280 281 282 283 285 287 288 288 288 288 289 291 290 291 291 291 291 291 291 290 290 290
249 248 246 243 241 240 240 240 240 239 238 237 235 232 231 232 234 235 236 238 240 241 241 239 239 238 233 226 222 219 218 220 223 225 226 226 227 228 227 227 232 242 247 250 254 261 269 271 269 271 276 277 275 274 277 279 280 281 281 282 281 280 280 279 280 281 283 285 287 287 287 288 288 289 290 290 290 291 292 292 292 292 291 291 291
246 245 242 239 238 238 238 237 237 238 237 236 234 232 230 230 232 233 235 239 242 241 238 236 235 235 232 227 223 219 219 221 223 224 225 226 227 227 225 229 238 246 250 253 261 270 275 273 271 274 277 276 275 278 280 281 282 282 282 283 283 282 281 280 279 280 281 282 284 284 285 285 286 287 288 288 288 288 288 289 292 293 292 292 291
241 239 237 235 234 234 234 233 234 235 235 235 234 232 229 229 231 234 236 240 242 241 238 236 234 233 231 228 225 222 222 222 223 223 224 225 225 225 227 235 242 246 251 257 266 274 276 273 272 275 276 275 278 280 282 282 282 282 283 283 283 281 281 282 282 282 282 282 281 281 282 282 283 283 283 284 284 284 281 281 284 286 285 285 287
235 232 230 228 227 226 225 225 228 230 231 232 232 230 227 226 228 234 238 241 242 241 238 236 234 231 228 226 224 222 222 222 223 223 223 223 223 226 231 237 242 247 252 261 271 275 274 271 272 274 274 276 280 281 282 282 282 282 282 282 281 281 283 285 285 285 284 283 282 282 281 281 281 282 282 282 284 285 285 284 284 281 278 280 283
224 221 218 217 215 213 211 211 213 217 219 222 223 223 223 223 227 232 237 240 239 235 231 230 228 224 222 223 222 221 221 222 222 221 221 221 222 226 232 239 245 250 257 266 273 274 271 270 271 273 275 278 280 281 281 281 281 281 281 280 280 282 284 285 284 284 284 284 284 284 284 285 286 286 288 289 290 292 294 294 292 287 282 281 282
214 212 209 205 202 197 192 189 191 194 197 203 208 209 211 215 221 226 229 228 225 221 218 218 216 213 213 215 216 216 215 216 216 216 217 219 223 230 238 245 250 255 263 269 271 269 268 270 273 275 277 279 280 281 281 281 281 281 280 280 281 283 285 285 284 286 288 288 289 290 290 292 294 295 296 298 298 300 300 299 298 295 290 286 284
202 199 194 190 185 180 175 172 172 176 179 184 190 195 198 202 205 208 209 208 206 203 201 199 198 198 199 201 205 208 209 211 213 216 220 225 232 239 245 250 255 260 264 265 265 266 270 274 277 279 280 281 281 281 281 280 280 279 280 281 283 284 286 286 287 288 290 290 291 291 292 294 295 297 298 299 300 301 301 300 299 298 297 294 288
183 180 177 174 170 167 166 163 162 164 167 171 176 180 183 186 186 187 188 188 186 183 182 181 181 184 188 192 196 202 207 211 216 220 226 232 238 244 249 253 256 258 260 263 267 272 275 277 278 279 280 281 281 280 279 278 278 278 279 280 282 283 283 283 283 283 284 285 286 287 290 291 292 293 294 296 297 299 299 299 300 300 300 299 294
168 167 165 164 161 160 158 156 155 156 158 162 166 168 171 174 174 173 174 174 174 173 174 175 177 180 184 189 194 199 205 211 217 223 229 235 240 244 248 250 253 256 261 267 271 274 275 276 278 279 280 280 280 280 280 280 279 280 280 281 281 281 280 280 279 279 279 279 280 281 284 285 287 290 291 292 293 295 295 296 298 299 299 300 298
161 160 159 158 157 155 153 152 152 153 155 159 161 163 165 167 166 166 167 167 169 170 170 171 174 179 185 190 196 202 207 213 219 224 229 233 237 241 245 249 255 260 265 269 271 273 276 278 279 280 280 280 281 282 283 284 285 285 286 286 286 284 283 281 279 278 279 280 280 281 283 285 287 288 289 290 291 291 291 293 294 296 297 299 298
158 157 156 154 153 152 151 151 151 153 155 157 160 162 163 164 164 163 162 162 165 167 170 174 178 183 189 193 198 204 208 213 218 222 227 232 237 243 249 253 257 260 263 267 271 273 275 276 277 278 279 280 282 283 285 287 288 289 290 290 290 289 287 285 281 277 277 279 281 281 283 284 284 283 283 285 286 286 287 289 291 293 295 297 297
156 155 153 151 151 151 151 151 152 153 155 157 159 160 162 163 163 162 161 165 170 174 180 185 189 192 195 198 202 207 212 217 223 227 231 235 240 244 248 251 255 258 261 265 268 270 271 273 274 277 279 281 283 285 286 288 289 290 291 291 292 291 290 288 285 280 278 279 280 281 282 283 284 284 284 285 286 288 291 292 292 292 292 294 295
155 154 153 152 152 153 153 155 155 156 157 158 159 160 162 164 167 168 171 176 181 186 192 194 195 198 202 206 209 213 216 219 223 226 229 232 236 241 246 250 254 257 260 262 265 268 271 273 276 278 280 282 283 284 285 286 287 289 290 291 293 293 293 292 292 290 288 288 288 289 289 289 290 291 292 292 293 294 295 294 293 292 292 292 292
156 156 155 155 156 156 157 159 160 160 161 161 161 164 167 170 173 176 180 184 186 189 192 193 195 198 200 203 206 206 208 212 216 222 229 234 239 244 248 252 255 258 262 265 268 270 272 274 276 278 280 281 283 284 286 288 291 293 297 299 301 301 302 303 303 301 300 299 299 298 297 297 296 297 297 298 299 298 296 294 293 292 292 292 291
158 158 158 159 160 160 161 163 165 167 169 170 172 174 175 177 179 181 184 186 187 187 185 184 187 188 189 193 198 201 209 218 223 228 234 239 243 248 251 256 260 263 266 269 271 273 275 277 280 282 285 288 290 292 295 297 300 303 306 308 309 308 309 309 308 306 305 304 303 302 301 300 300 299 298 298 299 299 298 296 294 292 291 292 292
161 162 163 164 166 167 169 171 174 177 179 181 184 185 183 181 180 180 181 180 179 180 179 180 183 186 191 199 206 211 218 224 228 233 239 245 251 257 261 264 267 270 274 277 279 281 284 287 290 292 295 297 298 300 301 303 305 307 309 310 310 310 310 309 308 306 306 304 303 303 303 302 301 300 299 299 300 300 299 297 297 295 293 292 292
169 169 171 173 175 178 180 182 182 183 181 182 184 185 184 180 176 175 176 176 178 181 182 185 190 195 201 208 213 218 224 229 234 242 249 256 261 265 269 273 277 282 286 288 289 291 293 295 296 297 298 299 299 299 300 302 304 306 308 309 309 309 308 308 308 308 308 308 307 308 308 307 306 305 304 304 305 305 303 301 301 301 299 297 295
181 180 181 181 181 182 182 182 183 180 177 176 177 179 181 181 179 177 178 179 183 187 190 194 200 204 209 215 219 226 232 238 246 254 260 264 269 273 277 282 286 290 291 291 292 293 294 294 294 295 295 295 296 297 298 300 302 304 305 306 306 305 305 306 308 309 309 309 309 310 310 310 309 309 309 308 308 307 306 306 306 306 306 303 300
181 183 183 181 179 178 176 176 177 176 174 175 175 176 180 183 186 188 188 189 192 196 200 204 208 211 216 222 228 235 243 251 258 263 267 270 274 278 282 285 288 290 290 291 290 291 292 292 292 293 293 293 294 296 297 299 301 302 303 303 302 302 303 306 308 309 310 310 311 312 312 312 312 312 311 311 311 311 310 311 312 312 310 306 302
174 177 178 177 176 175 173 173 174 175 176 178 179 181 184 186 190 195 201 204 206 208 212 215 216 218 224 232 240 247 253 259 263 266 269 273 277 281 284 287 290 291 290 290 290 290 290 290 290 291 292 292 293 294 296 297 298 299 300 300 301 302 304 306 308 309 310 311 312 312 314 315 315 315 314 315 316 316 315 316 317 317 314 308 303
172 175 175 175 175 175 176 176 177 180 183 184 186 188 191 194 198 203 209 214 216 217 221 225 227 230 236 242 249 254 258 262 265 269 274 278 282 285 286 287 289 290 290 290 289 289 289 289 290 290 290 291 292 293 294 295 296 297 299 300 301 303 305 306 308 310 311 312 313 315 317 318 317 316 316 317 318 318 317 315 316 319 320 317 310
174 176 177 178 178 180 183 184 185 188 190 191 194 197 199 204 209 213 218 221 222 224 228 231 234 239 243 246 252 256 260 265 269 273 278 280 282 284 284 285 287 287 288 288 288 288 289 289 288 289 290 290 291 293 294 295 296 297 298 299 301 303 305 307 310 312 313 314 315 317 319 318 317 316 316 317 318 318 316 314 312 313 318 321 319
178 182 185 187 187 189 193 193 194 195 196 198 202 205 208 212 215 217 220 223 225 229 232 234 237 240 243 247 253 257 261 267 271 274 277 278 280 281 283 285 285 285 286 287 287 288 288 288 288 289 290 291 293 294 295 296 296 297 298 299 301 303 306 308 311 313 315 316 318 319 318 317 317 316 315 316 318 318 317 313 309 307 311 315 317
184 187 192 195 197 198 199 200 201 202 203 206 208 210 213 215 217 221 224 228 230 231 232 234 237 239 242 247 254 259 264 268 271 273 275 276 278 280 282 283 284 285 286 286 287 287 288 288 290 291 291 292 294 294 294 295 295 295 296 298 301 303 305 307 310 312 314 315 316 316 316 316 317 317 317 317 319 319 318 314 310 307 308 309 310
191 194 196 199 202 202 202 203 205 207 208 210 211 213 215 217 221 226 229 229 230 232 232 235 238 241 244 250 257 262 266 267 269 272 274 276 279 280 282 283 284 284 284 285 285 286 287 288 290 291 291 292 292 292 292 292 292 294 295 297 300 302 303 305 307 310 313 314 314 314 315 315 317 319 319 318 319 320 320 318 314 312 311 312 310
199 201 202 202 203 204 205 205 206 207 209 211 212 215 218 222 225 228 228 228 229 232 234 237 240 242 246 252 257 261 263 265 269 272 275 278 280 281 281 282 282 282 282 282 282 283 285 287 288 289 290 290 289 289 289 290 290 292 294 295 297 299 300 302 305 308 311 313 313 312 313 314 315 318 319 319 318 318 319 320 319 317 315 314 312
201 203 205 206 206 207 209 209 210 211 213 214 217 220 223 225 226 226 226 228 230 233 237 240 243 245 248 251 255 259 263 266 270 273 276 278 279 280 280 280 279 279 279 279 279 281 283 285 286 287 286 286 285 285 286 286 287 289 291 292 294 296 297 299 302 305 308 309 309 310 310 310 312 314 316 316 315 315 316 316 316 315 314 313 312
202 203 206 208 209 210 212 213 215 217 218 220 223 224 224 224 224 225 227 230 233 237 240 243 246 248 250 252 254 259 263 267 270 273 275 276 277 277 277 277 276 276 276 276 277 279 281 283 284 284 283 282 282 282 282 283 284 285 287 289 291 293 294 296 298 301 303 304 304 305 306 306 307 308 310 311 311 311 312 312 311 312 312 311 310
205 207 209 211 212 213 215 216 217 219 221 222 223 223 223 223 225 228 232 235 238 240 243 246 249 252 254 256 258 261 264 267 269 271 272 273 274 274 274 274 273 273 274 274 276 278 280 281 281 281 280 279 279 278 279 279 280 282 285 287 289 291 293 295 297 299 300 301 301 301 302 302 302 303 304 305 306 306 306 307 307 307 308 308 308
209 211 212 214 216 217 219 219 220 221 222 222 222 222 224 228 231 235 238 240 241 243 246 250 252 255 258 261 263 265 266 267 268 269 270 271 271 271 271 270 270 270 271 273 275 277 278 279 279 278 277 276 275 275 275 276 278 280 282 285 287 290 291 293 295 297 298 298 299 299 300 299 298 299 299 301 302 303 303 304 304 305 306 306 307
213 214 215 218 220 221 222 222 222 222 221 222 223 226 231 236 239 241 242 243 244 247 250 253 256 259 262 264 265 266 267 267 268 269 269 269 269 269 269 269 269 270 271 272 275 277 277 278 277 275 273 272 272 273 273 274 275 278 281 283 286 288 289 290 292 294 296 297 298 299 300 298 296 296 296 297 299 300 300 301 302 303 304 305 307
217 218 220 221 222 223 223 223 222 222 223 225 228 234 239 243 245 245 245 247 249 251 254 256 259 262 264 265 266 266 267 268 268 269 269 269 268 268 269 269 270 270 271 273 276 277 277 277 276 273 270 269 269 270 271 273 274 277 279 282 284 285 286 287 289 290 292 294 296 298 299 299 297 296 295 295 296 298 298 299 300 300 301 302 304
220 222 223 224 224 224 224 224 224 225 228 231 237 242 246 248 248 248 249 250 252 254 257 259 261 263 264 265 266 267 268 269 269 269 269 269 268 268 269 269 269 270 271 273 275 276 276 276 274 272 269 267 266 267 268 271 273 276 278 279 281 283 283 284 287 289 290 291 294 296 298 299 299 298 296 296 296 297 297 297 297 297 298 300 301
223 223 224 225 225 225 225 226 228 231 234 238 244 248 250 250 251 251 252 253 256 258 260 261 263 264 265 266 268 269 270 270 271 271 270 270 270 270 270 270 269 270 272 272 273 274 274 274 272 270 268 266 265 265 266 269 271 274 276 277 277 279 280 282 284 286 287 289 291 293 295 297 297 297 296 295 295 296 296 297 297 297 299 300 301
224 224 224 225 226 227 229 231 233 236 240 244 247 249 250 251 252 253 255 258 259 261 262 263 264 266 267 268 270 271 271 271 272 271 271 271 271 271 270 271 271 272 273 273 273 273 273 272 271 269 267 266 265 265 266 268 271 273 274 274 274 275 276 278 280 282 284 286 288 290 293 296 296 295 293 293 293 293 294 295 296 297 299 300 301
224 225 226 227 229 231 233 236 238 242 244 247 249 250 252 254 256 257 259 262 263 263 265 266 267 268 269 270 270 271 271 271 272 272 271 272 271 271 271 272 273 274 274 274 274 273 272 271 270 268 266 265 265 266 266 268 271 273 272 271 271 271 272 273 275 277 279 281 283 286 289 292 292 292 291 291 292 292 293 293 294 296 298 299 300